Overview Statistics Trail Chart Weather Telemetry Raw packets
 

This is the latest recevied weather packets stored in our database for station/object WX5KDM. If no packets are shown the sender has not sent any weather packets the latest 10 day(s).

<< 110 111 112 113 114 >>
Time Temp. Humidity Pressure Rain* Wind** Luminosity Snow
1787787136 25.56° C 87% 1015.3 hPa 0 mm - - -
1787786830 25.56° C 87% 1015.2 hPa 0 mm - - -
1787786527 25.56° C 87% 1015.3 hPa 0 mm - - -
1787786221 25.56° C 87% 1015.4 hPa 0 mm - - -
1787785917 25.56° C 87% 1015.1 hPa 0 mm - - -
1787785612 26.11° C 87% 1015.2 hPa 0 mm - - -
1787785307 26.11° C 86% 1015 hPa 0 mm - - -
1787785006 26.11° C 86% 1014.8 hPa 0 mm - - -
1787784705 26.11° C 85% 1014.7 hPa 0 mm - - -
1787784405 26.67° C 85% 1014.5 hPa 0 mm - - -
1787784099 26.67° C 85% 1014.4 hPa 0 mm - - -
1787783796 26.67° C 84% 1014.4 hPa 0 mm - - -
1787783495 26.67° C 84% 1014.7 hPa 0 mm - - -
1787783191 26.67° C 85% 1014.6 hPa 0 mm - - -
1787782886 26.67° C 85% 1014.7 hPa 0 mm - - -
1787782580 27.22° C 83% 1014.6 hPa 0 mm - - -
1787782275 27.22° C 83% 1014.6 hPa 0 mm - - -
1787781971 27.22° C 82% 1014.5 hPa 0 mm - - -
1787781666 27.22° C 83% 1014.5 hPa 0 mm - - -
1787781363 27.22° C 84% 1014.5 hPa 0 mm - - -
1787781062 26.67° C 86% 1014.2 hPa 0 mm - - -
1787780761 26.67° C 87% 1014.3 hPa 0 mm - - -
1787780461 26.11° C 89% 1014.2 hPa 0 mm - - -
1787780158 26.11° C 89% 1014 hPa 0 mm - - -
1787779853 26.11° C 91% 1014.2 hPa 0 mm - - -

* Rain latest hour (hover to see other rain measurements)
** Current wind speed in m/s (hover to see current wind gust speed)